2023/02/03 00:00:00,88.0,-1.9
2023/02/03 00:10:00,87.9,-1.5
2023/02/03 00:20:00,87.6,-1.6
2023/02/03 00:30:00,87.5,-1.8
2023/02/03 00:40:00,87.7,-1.9
2023/02/03 00:50:00,87.7,-1.8
2023/02/03 01:00:00,87.7,-1.7
2023/02/03 01:10:00,87.6,-2.0
2023/02/03 01:20:00,87.6,-1.7
2023/02/03 01:30:00,87.5,-1.6
2023/02/03 01:40:00,87.5,-1.8
2023/02/03 01:50:00,87.4,-1.4
2023/02/03 02:00:00,87.4,-1.7
2023/02/03 02:10:00,87.4,-1.4
2023/02/03 02:20:00,87.3,-1.5
2023/02/03 02:30:00,87.2,-2.0
2023/02/03 02:40:00,87.2,-1.7
2023/02/03 02:50:00,87.0,-2.1
2023/02/03 03:00:00,87.0,-2.4
2023/02/03 03:10:00,87.1,-2.4
2023/02/03 03:20:00,87.2,-2.5
2023/02/03 03:30:00,87.1,-2.4
2023/02/03 03:40:00,87.1,-2.6
2023/02/03 03:50:00,87.0,-3.1
2023/02/03 04:00:00,86.8,-2.7
2023/02/03 04:10:00,86.6,-2.9
2023/02/03 04:20:00,86.6,-2.8
2023/02/03 04:30:00,86.6,-2.8
2023/02/03 04:40:00,86.7,-2.4
2023/02/03 04:50:00,86.6,-2.4
2023/02/03 05:00:00,86.6,-2.4
2023/02/03 05:10:00,86.6,-2.3
2023/02/03 05:20:00,86.6,-2.4
2023/02/03 05:30:00,86.6,-2.4
2023/02/03 05:40:00,86.5,-2.2
2023/02/03 05:50:00,86.4,-2.5
2023/02/03 06:00:00,86.4,-2.4
2023/02/03 06:10:00,86.5,-3.0
2023/02/03 06:20:00,86.4,-3.2
2023/02/03 06:30:00,86.3,-2.8
2023/02/03 06:40:00,86.4,-2.8
2023/02/03 06:50:00,86.4,-3.1
2023/02/03 07:00:00,86.3,-3.3
2023/02/03 07:10:00,86.3,-2.8
2023/02/03 07:20:00,86.3,-2.9
2023/02/03 07:30:00,86.3,-2.4
2023/02/03 07:40:00,86.2,-1.9
2023/02/03 07:50:00,86.1,-2.0
2023/02/03 08:00:00,86.1,-1.7
2023/02/03 08:10:00,86.0,-0.8
2023/02/03 08:20:00,85.7,-0.7
2023/02/03 08:30:00,85.8,-0.7
2023/02/03 08:40:00,85.9,-0.2
2023/02/03 08:50:00,86.0, 0.0
2023/02/03 09:00:00,85.9, 0.8
2023/02/03 09:10:00,85.8, 1.4
2023/02/03 09:20:00,85.7, 2.4
2023/02/03 09:30:00,85.7, 2.8
2023/02/03 09:40:00,85.7, 3.3
2023/02/03 09:50:00,85.6, 2.7
2023/02/03 10:00:00,85.6, 2.8
2023/02/03 10:10:00,85.6, 2.6
2023/02/03 10:20:00,85.6, 3.0
2023/02/03 10:30:00,85.5, 3.9
2023/02/03 10:40:00,85.3, 5.3
2023/02/03 10:50:00,85.4, 5.0
2023/02/03 11:00:00,85.4, 4.3
2023/02/03 11:10:00,85.3, 4.1
2023/02/03 11:20:00,85.2, 4.1
2023/02/03 11:30:00,85.0, 4.1
2023/02/03 11:40:00,84.6, 4.0
2023/02/03 11:50:00,84.7, 4.0
2023/02/03 12:00:00,84.7, 4.6
2023/02/03 12:10:00,84.5, 4.5
2023/02/03 12:20:00,84.3, 4.8
2023/02/03 12:30:00,84.3, 4.8
2023/02/03 12:40:00,84.1, 4.6
2023/02/03 12:50:00,83.9, 4.4
2023/02/03 13:00:00,83.9, 5.2
2023/02/03 13:10:00,83.7, 5.4
2023/02/03 13:20:00,83.6, 4.5
2023/02/03 13:30:00,83.3, 3.0
2023/02/03 13:40:00,83.3, 2.4
2023/02/03 13:50:00,83.2, 2.8
2023/02/03 14:00:00,83.2, 2.2
2023/02/03 14:10:00,83.1, 2.0
2023/02/03 14:20:00,83.2, 2.4
2023/02/03 14:30:00,83.1, 3.2
2023/02/03 14:40:00,83.0, 3.3
2023/02/03 14:50:00,82.8, 2.3
2023/02/03 15:00:00,82.7, 2.6
2023/02/03 15:10:00,82.8, 3.1
2023/02/03 15:20:00,82.7, 2.8
2023/02/03 15:30:00,82.6, 2.4
2023/02/03 15:40:00,82.5, 2.3
2023/02/03 15:50:00,82.4, 2.3
2023/02/03 16:00:00,82.3, 1.8
2023/02/03 16:10:00,82.2, 1.4
2023/02/03 16:20:00,82.1, 1.3
2023/02/03 16:30:00,82.2, 1.3
2023/02/03 16:40:00,82.1, 1.1
2023/02/03 16:50:00,82.0, 0.6
2023/02/03 17:00:00,81.9, 0.2
2023/02/03 17:10:00,81.9, 0.1
2023/02/03 17:20:00,82.0,-0.4
2023/02/03 17:30:00,81.9, 0.1
2023/02/03 17:40:00,81.7,-0.4
2023/02/03 17:50:00,81.7,-0.5
2023/02/03 18:00:00,81.7,-0.6
2023/02/03 18:10:00,81.7,-1.2
2023/02/03 18:20:00,81.7,-1.2
2023/02/03 18:30:00,81.7,-1.5
2023/02/03 18:40:00,81.6,-1.1
2023/02/03 18:50:00,81.5,-1.2
2023/02/03 19:00:00,81.4,-1.4
2023/02/03 19:10:00,81.3,-1.5
2023/02/03 19:20:00,81.2,-1.5
2023/02/03 19:30:00,81.2,-1.4
2023/02/03 19:40:00,81.2,-1.6
2023/02/03 19:50:00,81.3,-1.5
2023/02/03 20:00:00,81.3,-2.2
2023/02/03 20:10:00,81.1,-1.9
2023/02/03 20:20:00,81.0,-1.6
2023/02/03 20:30:00,80.9,-2.0
2023/02/03 20:40:00,80.9,-1.4
2023/02/03 20:50:00,81.0,-1.3
2023/02/03 21:00:00,81.2,-1.7
2023/02/03 21:10:00,81.3,-2.1
2023/02/03 21:20:00,81.2,-2.1
2023/02/03 21:30:00,81.2,-1.9
2023/02/03 21:40:00,81.1,-1.9
2023/02/03 21:50:00,81.2,-2.0
2023/02/03 22:00:00,81.2,-2.0
2023/02/03 22:10:00,81.2,-2.0
2023/02/03 22:20:00,81.1,-1.9
2023/02/03 22:30:00,81.0,-2.1
2023/02/03 22:40:00,80.9,-2.1
2023/02/03 22:50:00,80.9,-2.6
2023/02/03 23:00:00,81.0,-2.5
2023/02/03 23:10:00,81.0,-2.4
2023/02/03 23:20:00,80.9,-2.7
2023/02/03 23:30:00,81.0,-2.5
2023/02/03 23:40:00,81.0,-2.6
2023/02/03 23:50:00,80.9,-2.5
